[[{"header":{"parameterUnit":"m.s-1","parameterCategory":1,"la1":30.2991,"la2":30.254,"lo1":-89.0895,"lo2":-89.0444,"dy":0.0017,"dx":0.0017,"nx":28,"ny":28,"refTime":"2024-12-14T09:00:00:Z","depth":0,"parameterNumber":2,"parameterNumberName":"U-component_of_WINDS"},"data":[0,0,0,0,0,0,0,0,0,0,0,0,0,0,0,0,0,0,0,0,0,0,0,0,0,0,0,0,0,0,0,0,0,0,0,0,0,0,0,0,0,0,0,0,0,0,0,0,0,0,0,0,0,0,0,0,0,0,-5.8445,-5.8445,0,-5.8391,-5.839,-5.8389,-5.82,-5.8195,-5.8191,-5.8187,-5.8132,-5.8135,-5.8137,0,0,0,0,0,0,0,0,0,0,0,0,0,-5.839,-5.8392,-5.8445,-5.8445,-5.8444,-5.8391,-5.839,-5.8389,-5.82,-5.8195,-5.819,-5.8185,-5.8132,-5.8135,-5.8138,0,0,0,0,0,0,0,0,0,0,0,0,0,-5.8383,-5.8393,-5.8446,-5.8343,-5.8334,-5.8391,-5.839,-5.8389,-5.8201,-5.8195,-5.8188,-5.8182,-5.8131,-5.8134,-5.8138,-5.829,0,0,-5.815,-5.8151,0,0,0,0,0,0,0,0,-5.8384,-5.8385,-5.8359,-5.835,-5.834,-5.8295,-5.835,-5.8356,-5.8203,-5.8252,-5.8187,-5.8179,-5.8192,-5.819,-5.8194,-5.8288,-5.8285,-5.815,-5.8152,-5.8154,-5.8155,0,0,0,0,0,0,0,-5.8384,-5.8386,-5.8424,-5.8359,-5.8347,-5.8301,-5.8293,-5.8351,-5.8259,-5.8247,-5.8233,-5.8229,-5.8185,-5.8191,-5.8192,-5.8284,-5.815,-5.8153,-5.8156,-5.8157,-5.8503,-5.8509,0,0,0,0,0,0,-5.8399,-5.8388,-5.8425,-5.8422,-5.8346,-5.8308,-5.8298,-5.8316,-5.8257,-5.8242,-5.8235,-5.822,-5.8188,-5.8187,-5.8189,-5.8364,-5.8154,-5.8158,-5.816,-5.8496,-5.8504,-5.8512,0,0,0,0,0,0,-5.8399,-5.8404,-5.8428,-5.8401,-5.8401,-5.8315,-5.8337,-5.8318,-5.8323,-5.8248,-5.8231,-5.8257,-5.8183,-5.8184,-5.8267,-5.8359,-5.8159,-5.8163,-5.8488,-5.8499,-5.8508,-5.8715,0,0,0,0,0,0,-5.8398,-5.8405,-5.8461,-5.8404,-5.8403,-5.8506,-5.8342,-5.8322,-5.833,-5.8311,-5.8264,-5.825,-5.8178,-5.8262,-5.8271,-5.8361,-5.8166,-5.8479,-5.8493,-5.8505,-5.8699,-5.8731,-5.8758,0,0,0,0,0,-5.8396,-5.8521,-5.8464,-5.847,-5.8471,-5.8511,-5.8511,-5.8424,-5.8339,-5.8394,-5.8347,-5.8252,-5.8349,-5.8272,-5.828,-5.8373,-5.8473,-5.8489,-5.8504,-5.8686,-5.8725,-5.8757,0,0,0,0,0,0,-5.8589,-5.8511,-5.8448,-5.8557,-5.8543,-5.8479,-5.8546,-5.8467,-5.8476,-5.8458,-5.8351,-5.8342,-5.8441,-5.8415,-5.8332,-5.8519,-5.8395,-5.8413,-5.8531,-5.8567,-5.8596,-5.8599,-5.8169,0,0,0,0,0,-5.8645,-5.8684,-5.8614,-5.8717,-5.8713,-5.8633,-5.8647,-5.8582,-5.8562,-5.8555,-5.8512,-5.8498,-5.8525,-5.8545,-5.8565,-5.8696,-5.8683,-5.8764,-5.8793,-5.8818,-5.8834,-5.8902,-5.8937,-5.8563,-5.8563,-5.8562,0,0,-5.8759,-5.8722,-5.8752,-5.8755,-5.8736,-5.878,-5.8628,-5.868,-5.8712,-5.8563,-5.8638,-5.8608,-5.8585,-5.8693,-5.8739,-5.8675,-5.8935,-5.8838,-5.8858,-5.886,-5.8922,-5.8958,-5.8989,-5.8573,-5.8571,-5.857,0,0,-5.899,-5.8965,-5.9049,-5.9034,-5.9008,-5.8954,-5.8975,-5.8925,-5.8899,-5.8974,-5.8863,-5.8901,-5.8949,-5.8938,-5.8938,-5.9171,-5.9085,-5.9182,-5.9334,-5.9402,-5.9431,-5.9457,-5.954,-5.9571,-5.9198,-5.9199,-5.9199,0,-5.9135,-5.9195,-5.9103,-5.9163,-5.9168,-5.9037,-5.9122,-5.9113,-5.9095,-5.9102,-5.9032,-5.9092,-5.9067,-5.9171,-5.9228,-5.9233,-5.9254,-5.9184,-5.9435,-5.9459,-5.9482,-5.956,-5.9591,-5.921,-5.9209,-5.9208,-5.9207,0,-5.9376,-5.9421,-5.9492,-5.9479,-5.9493,-5.9566,-5.9485,-5.9511,-5.9447,-5.9401,-5.9481,-5.9448,-5.946,-5.948,-5.9417,-5.9577,-5.9538,-5.9454,-5.9327,-5.9531,-5.9602,-5.9632,-5.9227,-5.9223,-5.922,-5.9217,0,0,-5.9721,-5.9659,-5.9687,-5.9681,-5.9645,-5.9678,-5.9747,-5.9759,-5.9784,-5.9778,-5.9833,-5.988,-5.9801,-5.9803,-5.9738,-5.9799,-5.9986,-5.9705,-5.9703,-5.9758,-6.0161,-6.0224,-6.026,-5.993,-5.9935,-5.9939,-6.0162,0,-5.9939,-6.0051,-5.9972,-6.0098,-6.0139,-6.0018,-6.0078,-6.0064,-6.0025,-6.0055,-6.0012,-6.0047,-5.9941,-5.9941,-5.9996,-5.9952,-6.0065,-5.9935,-5.998,-5.9983,-5.9987,-6.0297,-6.0362,-6.0574,-6.019,-6.0194,-6.0198,0,-6.0206,-6.0214,-6.0345,-6.0303,-6.0318,-6.0373,-6.038,-6.041,-6.0393,-6.036,-6.0365,-6.0286,-6.0352,-6.0231,-6.0321,-6.0234,-6.0249,-6.0231,-6.0237,-6.0236,-6.0101,-6.0303,-6.0639,-6.0671,-6.0241,-6.0237,-6.0234,0,-6.0444,-6.0487,-6.0571,-6.057,-6.0524,-6.0566,-6.0549,-6.0526,-6.054,-6.0547,-6.0555,-6.0571,-6.0578,-6.0593,-6.0521,-6.0439,-6.0622,-6.0493,-6.0596,-6.0599,-6.0637,-6.0635,-6.098,-6.0651,-6.0651,-6.065,-6.065,0,-6.0694,-6.0779,-6.0678,-6.0729,-6.0822,-6.0732,-6.0826,-6.0797,-6.0778,-6.0823,-6.0721,-6.0765,-6.0668,-6.0704,-6.0649,-6.0732,-6.0737,-6.0713,-6.0697,-6.0721,-6.0724,-6.0727,-6.0709,-6.0658,-6.0657,-6.0655,-6.0654,0,-6.0973,-6.0909,-6.0993,-6.0944,-6.0935,-6.1005,-6.0963,-6.101,-6.0966,-6.1025,-6.1033,-6.0965,-6.1001,-6.0932,-6.096,-6.0923,-6.104,-6.1002,-6.1046,-6.1034,-6.114,-6.1131,-6.1496,-6.154,-6.1187,-6.119,-6.1193,0,-6.1135,-6.1198,-6.1158,-6.1181,-6.117,-6.1208,-6.1223,-6.1139,-6.1159,-6.1147,-6.1196,-6.1224,-6.1242,-6.1307,-6.1259,-6.1281,-6.1241,-6.1368,-6.1243,-6.1266,-6.1242,-6.1238,-6.1244,-6.1393,-6.1397,-6.1401,-6.1404,0,-6.143,-6.1397,-6.1421,-6.1437,-6.1458,-6.1466,-6.1466,-6.1492,-6.1403,-6.1431,-6.1468,-6.1482,-6.1512,-6.1542,-6.1553,-6.1536,-6.1456,-6.1444,-6.1469,-6.1492,-6.1514,-6.1503,-6.1114,-6.1435,-6.1432,-6.143,-6.1428,-6.1427,-6.1653,-6.1704,-6.1685,-6.1717,-6.171,-6.1715,-6.1757,-6.172,-6.1749,-6.1766,-6.1717,-6.1766,-6.1751,-6.1757,-6.175,-6.1788,-6.1731,-6.1767,-6.1776,-6.1786,-6.1802,-6.1512,-6.179,-6.1789,-6.1788,-6.1788,-6.1787,0,-6.1941,-6.1925,-6.1956,-6.1961,-6.1988,-6.1913,-6.1911,-6.1938,-6.1983,-6.1976,-6.1997,-6.2041,-6.2071,-6.2029,-6.2051,-6.209,-6.2054,-6.2099,-6.2093,-6.2091,-6.1852,-6.1828,-6.2128,-6.2128,-6.2127,-6.2127,-6.2127,-6.2127,-6.2094,-6.2176,-6.2142,-6.2222,-6.2204,-6.2251,-6.2257,-6.2262,-6.2256,-6.231,-6.2335,-6.2308,-6.2287,-6.2309,-6.2333,-6.232,-6.2333,-6.239,-6.2365,-6.2141,-6.2108,-6.2076,-6.2052,-6.2394,-6.2395,-6.26,-6.2602,-6.2603]},{"header":{"parameterUnit":"m.s-1","parameterCategory":1,"la1":30.2991,"la2":30.254,"lo1":-89.0895,"lo2":-89.0444,"dy":0.0017,"dx":0.0017,"nx":28,"ny":28,"refTime":"2024-12-14T09:00:00:Z","depth":0,"parameterNumber":3,"parameterNumberName":"V-component_of_WINDS"},"data":[0,0,0,0,0,0,0,0,0,0,0,0,0,0,0,0,0,0,0,0,0,0,0,0,0,0,0,0,0,0,0,0,0,0,0,0,0,0,0,0,0,0,0,0,0,0,0,0,0,0,0,0,0,0,0,0,0,0,-0.3366,-0.3367,0,-0.347,-0.3471,-0.3472,-0.3489,-0.3488,-0.3487,-0.3486,-0.3595,-0.3598,-0.3602,0,0,0,0,0,0,0,0,0,0,0,0,0,-0.3183,-0.3186,-0.3366,-0.3367,-0.3369,-0.347,-0.3471,-0.3472,-0.3489,-0.3488,-0.3487,-0.3486,-0.3593,-0.3598,-0.3602,0,0,0,0,0,0,0,0,0,0,0,0,0,-0.3272,-0.3188,-0.3366,-0.3389,-0.3392,-0.3469,-0.3471,-0.3473,-0.3489,-0.3488,-0.3487,-0.3485,-0.3592,-0.3597,-0.3603,-0.3665,0,0,-0.362,-0.3622,0,0,0,0,0,0,0,0,-0.3267,-0.3279,-0.3384,-0.3388,-0.3391,-0.3465,-0.3446,-0.3537,-0.349,-0.3453,-0.3486,-0.3485,-0.3553,-0.3561,-0.3584,-0.367,-0.3675,-0.362,-0.3624,-0.3626,-0.3628,0,0,0,0,0,0,0,-0.3261,-0.3275,-0.3407,-0.3386,-0.339,-0.3394,-0.3406,-0.3464,-0.3509,-0.3456,-0.3457,-0.3469,-0.3554,-0.3579,-0.3587,-0.3676,-0.362,-0.3625,-0.3629,-0.3631,-0.3816,-0.3817,0,0,0,0,0,0,-0.3251,-0.3269,-0.3404,-0.341,-0.3325,-0.3399,-0.3411,-0.3443,-0.3508,-0.3517,-0.347,-0.3469,-0.357,-0.358,-0.359,-0.3666,-0.3626,-0.3631,-0.3635,-0.3814,-0.3816,-0.3818,0,0,0,0,0,0,-0.3247,-0.3262,-0.34,-0.334,-0.3358,-0.3403,-0.3439,-0.3446,-0.347,-0.3519,-0.3528,-0.3486,-0.3569,-0.3583,-0.3646,-0.367,-0.3634,-0.3639,-0.3813,-0.3815,-0.3817,-0.3819,0,0,0,0,0,0,-0.3241,-0.3261,-0.3285,-0.3341,-0.3361,-0.3453,-0.344,-0.3449,-0.3479,-0.3479,-0.3537,-0.3545,-0.3569,-0.3637,-0.3651,-0.3677,-0.3643,-0.3811,-0.3814,-0.3816,-0.3817,-0.3821,-0.3824,0,0,0,0,0,-0.3235,-0.3282,-0.3286,-0.3302,-0.3392,-0.3454,-0.3466,-0.3492,-0.3481,-0.3505,-0.3537,-0.3543,-0.3665,-0.3643,-0.3659,-0.3688,-0.3809,-0.3813,-0.3816,-0.3815,-0.382,-0.3824,0,0,0,0,0,0,-0.323,-0.329,-0.3295,-0.3362,-0.3403,-0.3457,-0.3489,-0.3497,-0.3542,-0.3541,-0.3571,-0.3584,-0.3645,-0.3673,-0.3648,-0.375,-0.3736,-0.3743,-0.373,-0.3735,-0.3739,-0.3731,-0.3648,0,0,0,0,0,-0.3236,-0.3281,-0.3332,-0.3386,-0.3406,-0.3444,-0.3472,-0.3488,-0.3532,-0.3549,-0.3586,-0.3628,-0.3676,-0.3707,-0.3754,-0.382,-0.3833,-0.3847,-0.3851,-0.3854,-0.386,-0.3896,-0.3902,-0.3829,-0.3829,-0.3829,0,0,-0.3251,-0.3289,-0.3316,-0.3386,-0.342,-0.3465,-0.3458,-0.3508,-0.3542,-0.3557,-0.3618,-0.3646,-0.3696,-0.376,-0.379,-0.3785,-0.3882,-0.3858,-0.386,-0.3865,-0.39,-0.3907,-0.3913,-0.3832,-0.3831,-0.3831,0,0,-0.3301,-0.3334,-0.3383,-0.3415,-0.3465,-0.349,-0.3501,-0.3554,-0.3572,-0.3634,-0.3645,-0.3687,-0.3769,-0.3803,-0.3831,-0.389,-0.3898,-0.3905,-0.3925,-0.396,-0.3965,-0.3971,-0.3991,-0.3998,-0.391,-0.391,-0.391,0,-0.3313,-0.3382,-0.3407,-0.3455,-0.3485,-0.3498,-0.3547,-0.3578,-0.3641,-0.3661,-0.3654,-0.3755,-0.379,-0.3862,-0.3876,-0.3899,-0.3912,-0.3899,-0.3962,-0.3968,-0.3973,-0.3993,-0.4001,-0.3911,-0.3911,-0.3911,-0.3911,0,-0.3394,-0.3441,-0.3474,-0.3533,-0.3566,-0.3615,-0.3646,-0.3677,-0.3689,-0.3714,-0.3776,-0.3817,-0.3872,-0.389,-0.3903,-0.3963,-0.3958,-0.3956,-0.3943,-0.398,-0.3999,-0.4007,-0.3911,-0.3911,-0.3911,-0.3911,0,0,-0.3446,-0.3515,-0.3527,-0.3553,-0.3607,-0.3645,-0.3693,-0.3745,-0.377,-0.3813,-0.3854,-0.3921,-0.3919,-0.3951,-0.3968,-0.3998,-0.4041,-0.3992,-0.3994,-0.3999,-0.4109,-0.411,-0.4118,-0.4045,-0.4047,-0.4048,-0.4104,0,-0.3502,-0.3587,-0.3609,-0.3682,-0.3726,-0.3738,-0.378,-0.3818,-0.3842,-0.3882,-0.3909,-0.3956,-0.395,-0.3969,-0.3999,-0.4029,-0.4063,-0.4025,-0.4084,-0.4086,-0.4071,-0.4128,-0.413,-0.4181,-0.4112,-0.4113,-0.4114,0,-0.3579,-0.3621,-0.3698,-0.3744,-0.3764,-0.3801,-0.3849,-0.3887,-0.393,-0.3945,-0.3979,-0.3993,-0.4043,-0.4026,-0.4096,-0.4069,-0.4094,-0.4112,-0.4115,-0.4122,-0.4103,-0.4137,-0.4198,-0.4205,-0.4126,-0.4125,-0.4125,0,-0.3608,-0.3684,-0.3739,-0.3761,-0.3817,-0.3843,-0.3868,-0.3909,-0.3938,-0.398,-0.3999,-0.4047,-0.4073,-0.411,-0.4136,-0.4121,-0.4202,-0.4188,-0.4217,-0.4216,-0.4234,-0.4233,-0.43,-0.425,-0.425,-0.4249,-0.4249,0,-0.3669,-0.3715,-0.3753,-0.3787,-0.3838,-0.3863,-0.3914,-0.3939,-0.3975,-0.4014,-0.4028,-0.4064,-0.4096,-0.4136,-0.4157,-0.421,-0.4222,-0.4236,-0.4241,-0.4235,-0.4233,-0.4252,-0.4249,-0.4251,-0.4251,-0.4251,-0.425,0,-0.3711,-0.3738,-0.3799,-0.3846,-0.3859,-0.3895,-0.3935,-0.3969,-0.3992,-0.4041,-0.4054,-0.4091,-0.4139,-0.4167,-0.4229,-0.4243,-0.4302,-0.4305,-0.4287,-0.4289,-0.4316,-0.4313,-0.4398,-0.441,-0.4351,-0.4352,-0.4352,0,-0.3748,-0.3784,-0.3834,-0.386,-0.3884,-0.3927,-0.3956,-0.3981,-0.401,-0.406,-0.4087,-0.4136,-0.4176,-0.4252,-0.4285,-0.4331,-0.4336,-0.4363,-0.4344,-0.4336,-0.4336,-0.4334,-0.4337,-0.4366,-0.4367,-0.4367,-0.4368,0,-0.381,-0.3821,-0.3862,-0.3907,-0.394,-0.3977,-0.4014,-0.4035,-0.4066,-0.4098,-0.4147,-0.4178,-0.4239,-0.4287,-0.4336,-0.4362,-0.437,-0.4373,-0.4382,-0.4377,-0.4364,-0.4371,-0.4296,-0.4371,-0.4371,-0.4371,-0.4371,-0.437,-0.3851,-0.3883,-0.3922,-0.3966,-0.3996,-0.4029,-0.4062,-0.4088,-0.4129,-0.418,-0.4192,-0.4242,-0.4282,-0.4348,-0.4375,-0.4415,-0.4411,-0.4424,-0.4427,-0.443,-0.4431,-0.4357,-0.4424,-0.4424,-0.4424,-0.4424,-0.4424,0,-0.3914,-0.3939,-0.3979,-0.4029,-0.4064,-0.4066,-0.4106,-0.4135,-0.4179,-0.4215,-0.4254,-0.4308,-0.4354,-0.4389,-0.4436,-0.4461,-0.4466,-0.4473,-0.4471,-0.4477,-0.4432,-0.4419,-0.4468,-0.4468,-0.4468,-0.4468,-0.4468,-0.4468,-0.3951,-0.4003,-0.4018,-0.4085,-0.411,-0.4159,-0.4181,-0.4212,-0.424,-0.4301,-0.4338,-0.436,-0.4395,-0.4444,-0.4486,-0.4495,-0.4512,-0.4518,-0.4528,-0.4485,-0.448,-0.4476,-0.4464,-0.4521,-0.4521,-0.4569,-0.457,-0.457]}]]